Voltar ao catálogo

FENGYUN 1C DEB

AtivoSSO
NORAD 29769·DEBRIS·🇨🇳 China

Lançado May 10, 1999 de Taiyuan Satellite Launch Center

Loading…

Próximas Passagens (próximas 24 horas)

TLE

AtualizadoSource: Space-Track

Época: Sep 12, 2026, 16:23 UTC

1 29769U 99025BK  26255.68297514  .00001517  00000-0  77914-3 0  9995
2 29769  99.0876 322.8532 0092376  78.7963 282.3576 14.14705786  5490

Acompanhe FENGYUN 1C DEB em tempo real com AllMySat

Download on the App Store